Pauls Valley, OK

2:35 PM CDT on September 25, 2017 (GMT -0500)
Pauls Valley Municipal

Weather History for KPVJ - January, 2013

Change the Weather History Date:

Tuesday, January 1, 2013

  Actual Average (KADH) Record (KADH)
Temperature  
Mean Temperature 32 °F -  
Max Temperature 35 °F 46 °F 77 °F (1952)
Min Temperature 30 °F 25 °F 3 °F (1928)
Degree Days  
Heating Degree Days 32    
Moisture  
Dew Point 30 °F    
Average Humidity 90    
Maximum Humidity 100    
Minimum Humidity 80    
Precipitation  
Precipitation 0.00 in - - ()
Sea Level Pressure  
Sea Level Pressure 30.20 in    
Wind  
Wind Speed 9 mph (NNW)    
Max Wind Speed 18 mph    
Max Gust Speed 23 mph    
Visibility 7 miles    
Events      
Averages and records for this station are not official NWS values.
T = Trace of Precipitation, MM = Missing Value Source: NWS Daily Summary

Daily Weather History Graph

Daily Weather History Graph

Search for Another Location

Airport or City:

Trip Planner

Search our weather history database for the weather conditions in past years. The results will help you decide how hot, cold, wet, or windy it might be!

Date:

Astronomy

Jan. 01, 2013 Rise Set
Actual Time 7:36 AM CST 5:29 PM CST
Civil Twilight 7:08 AM CST 5:57 PM CST
Nautical Twilight 6:36 AM CST 6:28 PM CST
Astronomical Twilight 6:06 AM CST 6:59 PM CST
Moon 9:49 PM CST (1/1) 9:59 AM CST (1/1)
Length of Visible Light 10h 48m
Length of Day
9h 53m
Waning Gibbous, 83% of the Moon is Illuminated
Jan 1
Waning Gibbous
Jan 4
Last Quarter
Jan 11
New
Jan 18
First Quarter
Jan 26
Full

Hourly Weather History & Observations

Time (CST) Temp. Windchill Dew Point Humidity Pressure Visibility Wind Dir Wind Speed Gust Speed Precip Events Conditions
12:15 AM 33.8 °F 30.8 °F 33.8 °F 100% 30.06 in 4.0 mi West 3.5 mph - N/A   Mist
12:35 AM 33.8 °F 27.7 °F 33.8 °F 100% 30.05 in 5.0 mi NW 6.9 mph - N/A   Mist
12:55 AM 33.8 °F 27.7 °F 33.8 °F 100% 30.05 in 5.0 mi NW 6.9 mph - N/A   Mist
1:15 AM 33.8 °F 27.7 °F 33.8 °F 100% 30.05 in 5.0 mi NW 6.9 mph - N/A   Mist
1:35 AM 35.6 °F 32.8 °F 33.8 °F 93% 30.06 in 7.0 mi NW 3.5 mph - N/A   Unknown
1:55 AM 35.6 °F 30.7 °F 33.8 °F 93% 30.08 in 7.0 mi WNW 5.8 mph - N/A   Unknown
2:15 AM 35.6 °F 27.5 °F 33.8 °F 93% 30.09 in 7.0 mi NW 11.5 mph - N/A   Unknown
2:35 AM 35.6 °F 28.6 °F 33.8 °F 93% 30.09 in 7.0 mi NW 9.2 mph - N/A   Unknown
2:55 AM 33.8 °F 25.8 °F 33.8 °F 100% 30.10 in 7.0 mi NW 10.4 mph - N/A   Unknown
3:15 AM 33.8 °F 25.8 °F 33.8 °F 100% 30.10 in 7.0 mi NW 10.4 mph - N/A   Unknown
3:35 AM 33.8 °F 25.8 °F 33.8 °F 100% 30.11 in 7.0 mi NW 10.4 mph - N/A   Unknown
3:55 AM 33.8 °F 25.8 °F 33.8 °F 100% 30.11 in 7.0 mi NW 10.4 mph - N/A   Unknown
4:15 AM 33.8 °F 26.4 °F 33.8 °F 100% 30.11 in 7.0 mi NW 9.2 mph - N/A   Unknown
4:35 AM 33.8 °F 26.4 °F 33.8 °F 100% 30.11 in 7.0 mi NW 9.2 mph - N/A   Unknown
4:55 AM 33.8 °F 25.3 °F 33.8 °F 100% 30.12 in 7.0 mi NW 11.5 mph - N/A   Unknown
5:15 AM 33.8 °F 23.9 °F 32.0 °F 93% 30.14 in 5.0 mi NW 15.0 mph - N/A   Mist
5:35 AM 33.8 °F 25.3 °F 32.0 °F 93% 30.15 in 5.0 mi NW 11.5 mph - N/A   Mist
5:55 AM 32.0 °F 23.6 °F 32.0 °F 100% 30.13 in 7.0 mi NW 10.4 mph - N/A   Unknown
6:15 AM 32.0 °F 20.8 °F 32.0 °F 100% 30.11 in 3.0 mi NNW 17.3 mph - N/A   Mist
6:35 AM 32.0 °F 22.1 °F 32.0 °F 100% 30.13 in 5.0 mi NNW 13.8 mph - N/A   Mist
6:55 AM 32.0 °F 22.1 °F 32.0 °F 100% 30.16 in 5.0 mi NW 13.8 mph - N/A   Mist
7:15 AM 32.0 °F 22.1 °F 32.0 °F 100% 30.16 in 4.0 mi NW 13.8 mph - N/A   Mist
7:35 AM 32.0 °F 23.0 °F 30.2 °F 93% 30.16 in 5.0 mi NW 11.5 mph 17.3 mph N/A   Mist
7:55 AM 32.0 °F 22.1 °F 30.2 °F 93% 30.18 in 5.0 mi NW 13.8 mph - N/A   Mist
8:15 AM 32.0 °F 20.5 °F 30.2 °F 93% 30.19 in 4.0 mi NNW 18.4 mph 23.0 mph N/A   Mist
8:35 AM 32.0 °F 20.8 °F 30.2 °F 93% 30.20 in 4.0 mi NW 17.3 mph 20.7 mph N/A   Mist
8:55 AM 32.0 °F 21.6 °F 30.2 °F 93% 30.21 in 4.0 mi NNW 15.0 mph - N/A   Mist
9:15 AM 32.0 °F 23.0 °F 30.2 °F 93% 30.22 in 5.0 mi NNW 11.5 mph 16.1 mph N/A   Mist
9:35 AM 32.0 °F 23.0 °F 28.4 °F 87% 30.23 in 7.0 mi NNW 11.5 mph - N/A   Unknown
9:55 AM 32.0 °F 22.5 °F 28.4 °F 87% 30.24 in 7.0 mi NW 12.7 mph - N/A   Unknown
10:15 AM 32.0 °F 21.6 °F 28.4 °F 87% 30.25 in 7.0 mi NW 15.0 mph - N/A   Unknown
10:35 AM 32.0 °F 22.1 °F 28.4 °F 87% 30.26 in 7.0 mi NW 13.8 mph - N/A   Unknown
10:55 AM 32.0 °F 22.5 °F 30.2 °F 93% 30.26 in 7.0 mi NNW 12.7 mph - N/A   Unknown
11:15 AM 32.0 °F 23.6 °F 30.2 °F 93% 30.26 in 5.0 mi NW 10.4 mph - N/A   Mist
11:35 AM 32.0 °F 23.0 °F 30.2 °F 93% 30.26 in 5.0 mi NNW 11.5 mph - N/A   Mist
11:55 AM 32.0 °F 23.0 °F 28.4 °F 87% 30.26 in 7.0 mi NNW 11.5 mph - N/A   Unknown
12:15 PM 32.0 °F 22.5 °F 28.4 °F 87% 30.25 in 7.0 mi NNW 12.7 mph 17.3 mph N/A   Unknown
12:35 PM 32.0 °F 24.2 °F 30.2 °F 93% 30.24 in 7.0 mi NNW 9.2 mph - N/A   Unknown
12:55 PM 32.0 °F 22.1 °F 28.4 °F 87% 30.24 in 7.0 mi NNW 13.8 mph - N/A   Unknown
1:15 PM 32.0 °F 23.0 °F 28.4 °F 87% 30.23 in 7.0 mi NNW 11.5 mph - N/A   Unknown
1:35 PM 32.0 °F 22.1 °F 28.4 °F 87% 30.22 in 7.0 mi NNW 13.8 mph 18.4 mph N/A   Unknown
1:55 PM 32.0 °F 23.0 °F 28.4 °F 87% 30.23 in 7.0 mi NNW 11.5 mph 18.4 mph N/A   Unknown
2:15 PM 33.8 °F 24.3 °F 28.4 °F 81% 30.22 in 7.0 mi NNW 13.8 mph - N/A   Unknown
2:35 PM 32.0 °F 23.0 °F 28.4 °F 87% 30.22 in 7.0 mi NW 11.5 mph - N/A   Unknown
2:55 PM 32.0 °F 23.6 °F 28.4 °F 87% 30.22 in 10.0 mi NNW 10.4 mph - N/A   Unknown
3:15 PM 32.0 °F 23.6 °F 28.4 °F 87% 30.22 in 10.0 mi NNW 10.4 mph - N/A   Unknown
3:35 PM 32.0 °F 24.2 °F 28.4 °F 87% 30.23 in 7.0 mi North 9.2 mph - N/A   Unknown
3:55 PM 32.0 °F 24.2 °F 28.4 °F 87% 30.23 in 7.0 mi NNW 9.2 mph - N/A   Unknown
4:15 PM 32.0 °F 24.2 °F 28.4 °F 87% 30.24 in 10.0 mi NNW 9.2 mph - N/A   Unknown
4:35 PM 32.0 °F 24.8 °F 28.4 °F 87% 30.25 in 10.0 mi NNW 8.1 mph - N/A   Unknown
4:55 PM 32.0 °F 23.0 °F 26.6 °F 80% 30.25 in 10.0 mi NNW 11.5 mph - N/A   Unknown
5:15 PM 32.0 °F 24.2 °F 26.6 °F 80% 30.26 in 10.0 mi NNW 9.2 mph - N/A   Unknown
5:35 PM 32.0 °F 24.2 °F 26.6 °F 80% 30.27 in 10.0 mi NNW 9.2 mph - N/A   Unknown
5:55 PM 32.0 °F 25.6 °F 26.6 °F 80% 30.27 in 10.0 mi North 6.9 mph - N/A   Unknown
6:15 PM 32.0 °F 24.8 °F 26.6 °F 80% 30.27 in 10.0 mi NNW 8.1 mph - N/A   Unknown
6:35 PM 32.0 °F 24.8 °F 26.6 °F 80% 30.26 in 10.0 mi North 8.1 mph - N/A   Unknown
6:55 PM 32.0 °F 25.6 °F 26.6 °F 80% 30.27 in 10.0 mi NNW 6.9 mph - N/A   Unknown
7:15 PM 32.0 °F 25.6 °F 26.6 °F 80% 30.27 in 10.0 mi NNW 6.9 mph - N/A   Unknown
7:35 PM 30.2 °F 25.4 °F 26.6 °F 86% 30.26 in 10.0 mi NNW 4.6 mph - N/A   Unknown
7:55 PM 32.0 °F 26.4 °F 26.6 °F 80% 30.27 in 10.0 mi NNW 5.8 mph - N/A   Unknown
8:15 PM 32.0 °F 27.5 °F 26.6 °F 80% 30.28 in 10.0 mi NNW 4.6 mph - N/A   Unknown
8:35 PM 30.2 °F 22.6 °F 26.6 °F 86% 30.27 in 10.0 mi NNW 8.1 mph - N/A   Unknown
8:55 PM 30.2 °F 24.3 °F 26.6 °F 86% 30.27 in 7.0 mi NNW 5.8 mph - N/A   Unknown
9:15 PM 30.2 °F 22.6 °F 26.6 °F 86% 30.27 in 7.0 mi NNW 8.1 mph - N/A   Unknown
9:35 PM 30.2 °F 24.3 °F 26.6 °F 86% 30.28 in 7.0 mi NW 5.8 mph - N/A   Unknown
9:55 PM 30.2 °F 21.9 °F 26.6 °F 86% 30.28 in 7.0 mi NNW 9.2 mph - N/A   Unknown
10:15 PM 30.2 °F 22.6 °F 26.6 °F 86% 30.29 in 7.0 mi NNW 8.1 mph - N/A   Unknown
10:35 PM 30.2 °F 22.6 °F 26.6 °F 86% 30.29 in 7.0 mi North 8.1 mph - N/A   Unknown
10:55 PM 30.2 °F 22.6 °F 26.6 °F 86% 30.29 in 7.0 mi NW 8.1 mph - N/A   Unknown
11:15 PM 30.2 °F 21.9 °F 26.6 °F 86% 30.29 in 7.0 mi NNW 9.2 mph - N/A   Unknown
11:35 PM 30.2 °F 24.3 °F 26.6 °F 86% 30.30 in 7.0 mi NNW 5.8 mph - N/A   Unknown
11:55 PM 30.2 °F 21.9 °F 26.6 °F 86% 30.30 in 7.0 mi North 9.2 mph - N/A   Unknown